Saint Bonnet de Bellac- Haute Vienne - France
Donnes mto: lundi, 14/11/2011
Date Horaire Temp. E. Hum. E. P.atmo. Pluie Vent Direction Direction Ensoleilleme Solaire P. de rose Temp au vent Rafales
14/11/2011 00:00 12,3 C 59 % 1021,5 hPa 0,0 mm 0,4 km/h (0 Bft) E-SE 112 0 min 0 W/m 4,5 C 12,3 C 2,9 km/h (1 Bft)
14/11/2011 00:05 12,1 C 60 % 1021,5 hPa 0,0 mm 0,4 km/h (0 Bft) E-SE 112 0 min 0 W/m 4,6 C 12,1 C 1,4 km/h (1 Bft)
14/11/2011 00:10 11,9 C 60 % 1021,5 hPa 0,0 mm 2,2 km/h (1 Bft) S-SE 157 0 min 0 W/m 4,4 C 11,9 C 2,9 km/h (1 Bft)
14/11/2011 00:15 11,8 C 60 % 1021,5 hPa 0,0 mm 4,7 km/h (1 Bft) S-SE 157 0 min 0 W/m 4,3 C 11,8 C 6,5 km/h (2 Bft)
14/11/2011 00:20 11,8 C 60 % 1021,5 hPa 0,0 mm 4,7 km/h (1 Bft) S-SO 202 0 min 0 W/m 4,3 C 11,8 C 10,8 km/h (2 Bft)
14/11/2011 00:25 11,8 C 60 % 1021,5 hPa 0,0 mm 9,4 km/h (2 Bft) S-SE 157 0 min 0 W/m 4,3 C 11,8 C 13,0 km/h (3 Bft)
14/11/2011 00:30 11,8 C 60 % 1021,5 hPa 0,0 mm 6,1 km/h (2 Bft) S-SE 157 0 min 0 W/m 4,3 C 11,8 C 9,7 km/h (2 Bft)
14/11/2011 00:35 11,9 C 60 % 1021,4 hPa 0,0 mm 5,4 km/h (2 Bft) S 180 0 min 0 W/m 4,4 C 11,9 C 7,6 km/h (2 Bft)
14/11/2011 00:40 11,9 C 60 % 1021,3 hPa 0,0 mm 5,4 km/h (2 Bft) S-SE 157 0 min 0 W/m 4,4 C 11,9 C 10,1 km/h (2 Bft)
14/11/2011 00:45 11,9 C 59 % 1021,3 hPa 0,0 mm 3,6 km/h (1 Bft) S-SE 157 0 min 0 W/m 4,1 C 11,9 C 6,8 km/h (2 Bft)
14/11/2011 00:50 11,9 C 59 % 1021,3 hPa 0,0 mm 0,4 km/h (0 Bft) S-SE 157 0 min 0 W/m 4,1 C 11,9 C 6,1 km/h (2 Bft)
14/11/2011 00:55 11,8 C 60 % 1021,3 hPa 0,0 mm 4,0 km/h (1 Bft) S 180 0 min 0 W/m 4,3 C 11,8 C 6,8 km/h (2 Bft)
14/11/2011 01:00 11,8 C 60 % 1021,3 hPa 0,0 mm 0,4 km/h (0 Bft) E 90 0 min 0 W/m 4,3 C 11,8 C 3,6 km/h (1 Bft)
14/11/2011 01:05 11,8 C 60 % 1021,2 hPa 0,0 mm 6,8 km/h (2 Bft) SE 135 0 min 0 W/m 4,3 C 11,8 C 12,2 km/h (2 Bft)
14/11/2011 01:10 11,8 C 60 % 1021,1 hPa 0,0 mm 4,7 km/h (1 Bft) SE 135 0 min 0 W/m 4,3 C 11,8 C 11,5 km/h (2 Bft)
14/11/2011 01:15 11,8 C 60 % 1021,1 hPa 0,0 mm 7,6 km/h (2 Bft) S-SE 157 0 min 0 W/m 4,3 C 11,8 C 10,1 km/h (2 Bft)
14/11/2011 01:20 11,8 C 60 % 1021,2 hPa 0,0 mm 6,8 km/h (2 Bft) SE 135 0 min 0 W/m 4,3 C 11,8 C 13,0 km/h (3 Bft)
14/11/2011 01:25 11,8 C 60 % 1021,2 hPa 0,0 mm 5,8 km/h (2 Bft) E-NE 67 0 min 0 W/m 4,3 C 11,8 C 10,4 km/h (2 Bft)
14/11/2011 01:30 11,8 C 59 % 1021,0 hPa 0,0 mm 2,5 km/h (1 Bft) S-SE 157 0 min 0 W/m 4,1 C 11,8 C 4,0 km/h (1 Bft)
14/11/2011 01:35 11,8 C 60 % 1021,0 hPa 0,0 mm 2,9 km/h (1 Bft) SE 135 0 min 0 W/m 4,3 C 11,8 C 2,9 km/h (1 Bft)
14/11/2011 01:40 11,8 C 60 % 1021,0 hPa 0,0 mm 1,4 km/h (1 Bft) SE 135 0 min 0 W/m 4,3 C 11,8 C 1,4 km/h (1 Bft)
14/11/2011 01:45 11,6 C 60 % 1021,0 hPa 0,0 mm 0,7 km/h (0 Bft) E 90 0 min 0 W/m 4,1 C 11,6 C 3,6 km/h (1 Bft)
14/11/2011 01:50 11,4 C 61 % 1021,0 hPa 0,0 mm 0,0 km/h (0 Bft) E 90 0 min 0 W/m 4,2 C 11,4 C 3,2 km/h (1 Bft)
14/11/2011 01:55 11,1 C 61 % 1021,0 hPa 0,0 mm 0,7 km/h (0 Bft) E-NE 67 0 min 0 W/m 3,9 C 11,1 C 2,9 km/h (1 Bft)
14/11/2011 02:02 10,8 C 62 % 1021,0 hPa 0,0 mm 0,4 km/h (0 Bft) E 90 0 min 0 W/m 3,8 C 10,8 C 3,6 km/h (1 Bft)
14/11/2011 02:05 10,6 C 63 % 1021,0 hPa 0,0 mm 0,0 km/h (0 Bft) E-SE 112 0 min 0 W/m 3,9 C 10,6 C 0,0 km/h (0 Bft)
14/11/2011 02:10 10,4 C 63 % 1020,9 hPa 0,0 mm 0,0 km/h (0 Bft) E 90 0 min 0 W/m 3,7 C 10,4 C 1,4 km/h (1 Bft)
14/11/2011 02:15 10,2 C 63 % 1020,8 hPa 0,0 mm 2,2 km/h (1 Bft) E 90 0 min 0 W/m 3,5 C 10,2 C 4,3 km/h (1 Bft)
14/11/2011 02:20 10,0 C 64 % 1020,8 hPa 0,0 mm 1,8 km/h (1 Bft) E-NE 67 0 min 0 W/m 3,5 C 10,0 C 6,5 km/h (2 Bft)
14/11/2011 02:25 9,9 C 64 % 1020,8 hPa 0,0 mm 1,1 km/h (1 Bft) E-NE 67 0 min 0 W/m 3,4 C 9,9 C 3,2 km/h (1 Bft)
14/11/2011 02:30 9,8 C 65 % 1020,8 hPa 0,0 mm 3,6 km/h (1 Bft) E 90 0 min 0 W/m 3,5 C 9,8 C 6,8 km/h (2 Bft)
14/11/2011 02:35 9,7 C 65 % 1020,7 hPa 0,0 mm 2,2 km/h (1 Bft) E-SE 112 0 min 0 W/m 3,4 C 9,7 C 6,5 km/h (2 Bft)
14/11/2011 02:40 9,7 C 66 % 1020,8 hPa 0,0 mm 0,4 km/h (0 Bft) E 90 0 min 0 W/m 3,7 C 9,7 C 0,4 km/h (0 Bft)
14/11/2011 02:45 9,6 C 66 % 1020,8 hPa 0,0 mm 0,0 km/h (0 Bft) E-NE 67 0 min 0 W/m 3,6 C 9,6 C 0,0 km/h (0 Bft)
14/11/2011 02:50 9,5 C 66 % 1020,8 hPa 0,0 mm 0,0 km/h (0 Bft) E 90 0 min 0 W/m 3,5 C 9,5 C 0,0 km/h (0 Bft)
14/11/2011 02:55 9,4 C 66 % 1020,8 hPa 0,0 mm 0,0 km/h (0 Bft) E 90 0 min 0 W/m 3,4 C 9,4 C 0,0 km/h (0 Bft)
14/11/2011 03:00 9,3 C 66 % 1020,7 hPa 0,0 mm 1,1 km/h (1 Bft) E-SE 112 0 min 0 W/m 3,3 C 9,3 C 1,1 km/h (1 Bft)
14/11/2011 03:05 9,2 C 66 % 1020,8 hPa 0,0 mm 0,0 km/h (0 Bft) E 90 0 min 0 W/m 3,2 C 9,2 C 0,0 km/h (0 Bft)
14/11/2011 03:10 9,1 C 67 % 1020,6 hPa 0,0 mm 0,0 km/h (0 Bft) E 90 0 min 0 W/m 3,3 C 9,1 C 0,0 km/h (0 Bft)
14/11/2011 03:15 9,1 C 67 % 1020,7 hPa 0,0 mm 0,0 km/h (0 Bft) E 90 0 min 0 W/m 3,3 C 9,1 C 0,0 km/h (0 Bft)
14/11/2011 03:20 9,0 C 67 % 1020,5 hPa 0,0 mm 1,1 km/h (1 Bft) E 90 0 min 0 W/m 3,2 C 9,0 C 3,6 km/h (1 Bft)
14/11/2011 03:25 9,1 C 67 % 1020,5 hPa 0,0 mm 1,4 km/h (1 Bft) E-NE 67 0 min 0 W/m 3,3 C 9,1 C 1,4 km/h (1 Bft)
14/11/2011 03:30 9,2 C 67 % 1020,5 hPa 0,0 mm 0,0 km/h (0 Bft) E 90 0 min 0 W/m 3,4 C 9,2 C 0,0 km/h (0 Bft)
14/11/2011 03:35 9,3 C 67 % 1020,4 hPa 0,0 mm 2,9 km/h (1 Bft) SE 135 0 min 0 W/m 3,5 C 9,3 C 6,5 km/h (2 Bft)
14/11/2011 03:40 9,5 C 66 % 1020,3 hPa 0,0 mm 0,7 km/h (0 Bft) E-SE 112 0 min 0 W/m 3,5 C 9,5 C 0,7 km/h (0 Bft)
14/11/2011 03:45 9,7 C 65 % 1020,3 hPa 0,0 mm 5,8 km/h (2 Bft) SE 135 0 min 0 W/m 3,4 C 9,2 C 8,6 km/h (2 Bft)
14/11/2011 03:50 9,9 C 64 % 1020,2 hPa 0,0 mm 3,2 km/h (1 Bft) E 90 0 min 0 W/m 3,4 C 9,9 C 7,9 km/h (2 Bft)
14/11/2011 03:55 10,1 C 63 % 1020,1 hPa 0,0 mm 4,0 km/h (1 Bft) S-SE 157 0 min 0 W/m 3,4 C 10,1 C 8,6 km/h (2 Bft)
14/11/2011 04:00 10,3 C 63 % 1020,0 hPa 0,0 mm 1,8 km/h (1 Bft) SE 135 0 min 0 W/m 3,6 C 10,3 C 4,3 km/h (1 Bft)
14/11/2011 04:05 10,5 C 62 % 1020,0 hPa 0,0 mm 9,0 km/h (2 Bft) S-SE 157 0 min 0 W/m 3,5 C 10,5 C 9,0 km/h (2 Bft)
14/11/2011 04:10 10,7 C 61 % 1019,8 hPa 0,0 mm 4,3 km/h (1 Bft) SE 135 0 min 0 W/m 3,5 C 10,7 C 7,6 km/h (2 Bft)
14/11/2011 04:15 10,8 C 60 % 1019,8 hPa 0,0 mm 0,0 km/h (0 Bft) SE 135 0 min 0 W/m 3,4 C 10,8 C 0,0 km/h (0 Bft)
14/11/2011 04:20 10,9 C 60 % 1019,7 hPa 0,0 mm 3,2 km/h (1 Bft) SE 135 0 min 0 W/m 3,4 C 10,9 C 6,5 km/h (2 Bft)
14/11/2011 04:25 11,0 C 60 % 1019,7 hPa 0,0 mm 5,0 km/h (1 Bft) E-SE 112 0 min 0 W/m 3,5 C 11,0 C 8,6 km/h (2 Bft)
14/11/2011 04:30 11,1 C 59 % 1019,7 hPa 0,0 mm 0,0 km/h (0 Bft) SE 135 0 min 0 W/m 3,4 C 11,1 C 2,9 km/h (1 Bft)
14/11/2011 04:35 11,1 C 58 % 1019,7 hPa 0,0 mm 5,8 km/h (2 Bft) E-SE 112 0 min 0 W/m 3,2 C 11,1 C 5,8 km/h (2 Bft)
14/11/2011 04:40 11,2 C 58 % 1019,7 hPa 0,0 mm 7,2 km/h (2 Bft) S-SE 157 0 min 0 W/m 3,2 C 11,2 C 10,1 km/h (2 Bft)
14/11/2011 04:45 11,3 C 57 % 1019,7 hPa 0,0 mm 2,5 km/h (1 Bft) E-SE 112 0 min 0 W/m 3,1 C 11,3 C 2,5 km/h (1 Bft)
14/11/2011 04:50 11,4 C 56 % 1019,8 hPa 0,0 mm 4,0 km/h (1 Bft) SE 135 0 min 0 W/m 2,9 C 11,4 C 4,0 km/h (1 Bft)
14/11/2011 04:55 11,4 C 56 % 1019,7 hPa 0,0 mm 2,5 km/h (1 Bft) SE 135 0 min 0 W/m 2,9 C 11,4 C 6,5 km/h (2 Bft)
14/11/2011 05:00 11,4 C 56 % 1019,7 hPa 0,0 mm 3,2 km/h (1 Bft) SE 135 0 min 0 W/m 2,9 C 11,4 C 3,2 km/h (1 Bft)
14/11/2011 05:05 11,4 C 55 % 1019,6 hPa 0,0 mm 1,8 km/h (1 Bft) SE 135 0 min 0 W/m 2,7 C 11,4 C 4,0 km/h (1 Bft)
14/11/2011 05:10 11,4 C 55 % 1019,6 hPa 0,0 mm 5,4 km/h (2 Bft) E-SE 112 0 min 0 W/m 2,7 C 11,4 C 8,3 km/h (2 Bft)
14/11/2011 05:15 11,4 C 55 % 1019,6 hPa 0,0 mm 8,3 km/h (2 Bft) S-SE 157 0 min 0 W/m 2,7 C 11,4 C 13,3 km/h (3 Bft)
14/11/2011 05:20 11,4 C 55 % 1019,5 hPa 0,0 mm 5,0 km/h (1 Bft) E 90 0 min 0 W/m 2,7 C 11,4 C 7,2 km/h (2 Bft)
14/11/2011 05:25 11,4 C 55 % 1019,5 hPa 0,0 mm 4,3 km/h (1 Bft) SE 135 0 min 0 W/m 2,7 C 11,4 C 7,6 km/h (2 Bft)
14/11/2011 05:30 11,5 C 54 % 1019,5 hPa 0,0 mm 6,8 km/h (2 Bft) S-SE 157 0 min 0 W/m 2,5 C 11,5 C 9,7 km/h (2 Bft)
14/11/2011 05:35 11,5 C 54 % 1019,5 hPa 0,0 mm 5,8 km/h (2 Bft) E-SE 112 0 min 0 W/m 2,5 C 11,5 C 5,8 km/h (2 Bft)
14/11/2011 05:40 11,6 C 54 % 1019,4 hPa 0,0 mm 3,2 km/h (1 Bft) S-SE 157 0 min 0 W/m 2,6 C 11,6 C 7,6 km/h (2 Bft)
14/11/2011 05:45 11,6 C 53 % 1019,4 hPa 0,0 mm 6,5 km/h (2 Bft) SE 135 0 min 0 W/m 2,4 C 11,6 C 11,9 km/h (2 Bft)
14/11/2011 05:50 11,7 C 53 % 1019,4 hPa 0,0 mm 7,2 km/h (2 Bft) E-SE 112 0 min 0 W/m 2,4 C 11,7 C 11,5 km/h (2 Bft)
14/11/2011 05:55 11,8 C 53 % 1019,4 hPa 0,0 mm 3,6 km/h (1 Bft) S-SE 157 0 min 0 W/m 2,5 C 11,8 C 3,6 km/h (1 Bft)
14/11/2011 06:00 11,7 C 52 % 1019,3 hPa 0,0 mm 2,9 km/h (1 Bft) SE 135 0 min 0 W/m 2,2 C 11,7 C 2,9 km/h (1 Bft)
14/11/2011 06:05 11,8 C 52 % 1019,3 hPa 0,0 mm 6,5 km/h (2 Bft) E 90 0 min 0 W/m 2,3 C 11,8 C 9,4 km/h (2 Bft)
14/11/2011 06:10 11,8 C 52 % 1019,3 hPa 0,0 mm 6,5 km/h (2 Bft) SE 135 0 min 0 W/m 2,3 C 11,8 C 9,0 km/h (2 Bft)
14/11/2011 06:15 11,8 C 52 % 1019,3 hPa 0,0 mm 6,1 km/h (2 Bft) E 90 0 min 0 W/m 2,3 C 11,8 C 9,7 km/h (2 Bft)
14/11/2011 06:20 11,8 C 52 % 1019,3 hPa 0,0 mm 7,6 km/h (2 Bft) SE 135 0 min 0 W/m 2,3 C 11,8 C 13,0 km/h (3 Bft)
14/11/2011 06:25 11,8 C 51 % 1019,2 hPa 0,0 mm 5,4 km/h (2 Bft) S 180 0 min 0 W/m 2,0 C 11,8 C 7,9 km/h (2 Bft)
14/11/2011 06:30 11,7 C 52 % 1019,2 hPa 0,0 mm 0,7 km/h (0 Bft) S 180 0 min 0 W/m 2,2 C 11,7 C 3,6 km/h (1 Bft)
14/11/2011 06:35 11,7 C 52 % 1019,2 hPa 0,0 mm 4,3 km/h (1 Bft) S-SE 157 0 min 0 W/m 2,2 C 11,7 C 6,8 km/h (2 Bft)
14/11/2011 06:40 11,6 C 51 % 1019,1 hPa 0,0 mm 5,4 km/h (2 Bft) SE 135 0 min 0 W/m 1,8 C 11,6 C 9,0 km/h (2 Bft)
14/11/2011 06:45 11,6 C 51 % 1019,2 hPa 0,0 mm 5,0 km/h (1 Bft) S-SE 157 0 min 0 W/m 1,8 C 11,6 C 7,6 km/h (2 Bft)
14/11/2011 06:50 11,6 C 52 % 1019,2 hPa 0,0 mm 2,9 km/h (1 Bft) SE 135 0 min 0 W/m 2,1 C 11,6 C 4,3 km/h (1 Bft)
14/11/2011 06:55 11,6 C 52 % 1019,1 hPa 0,0 mm 2,5 km/h (1 Bft) SE 135 0 min 0 W/m 2,1 C 11,6 C 4,3 km/h (1 Bft)
14/11/2011 07:00 11,5 C 52 % 1019,1 hPa 0,0 mm 6,1 km/h (2 Bft) SE 135 0 min 0 W/m 2,0 C 11,5 C 10,8 km/h (2 Bft)
14/11/2011 07:05 11,4 C 52 % 1019,1 hPa 0,0 mm 6,1 km/h (2 Bft) SE 135 0 min 0 W/m 1,9 C 11,4 C 8,3 km/h (2 Bft)
14/11/2011 07:10 11,4 C 52 % 1019,0 hPa 0,0 mm 4,3 km/h (1 Bft) S-SE 157 0 min 0 W/m 1,9 C 11,4 C 7,6 km/h (2 Bft)
14/11/2011 07:15 11,4 C 51 % 1019,0 hPa 0,0 mm 6,5 km/h (2 Bft) E-SE 112 0 min 0 W/m 1,6 C 11,4 C 6,5 km/h (2 Bft)
14/11/2011 07:20 11,4 C 51 % 1019,0 hPa 0,0 mm 6,8 km/h (2 Bft) SE 135 0 min 0 W/m 1,6 C 11,4 C 10,1 km/h (2 Bft)
14/11/2011 07:25 11,4 C 51 % 1019,0 hPa 0,0 mm 3,2 km/h (1 Bft) S-SE 157 0 min 0 W/m 1,6 C 11,4 C 8,6 km/h (2 Bft)
14/11/2011 07:30 11,4 C 51 % 1019,0 hPa 0,0 mm 2,2 km/h (1 Bft) E-SE 112 0 min 0 W/m 1,6 C 11,4 C 8,6 km/h (2 Bft)
14/11/2011 07:35 11,5 C 51 % 1019,0 hPa 0,0 mm 7,9 km/h (2 Bft) E-SE 112 0 min 0 W/m 1,7 C 11,5 C 11,9 km/h (2 Bft)
14/11/2011 07:40 11,5 C 51 % 1019,0 hPa 0,0 mm 6,1 km/h (2 Bft) S 180 0 min 0 W/m 1,7 C 11,5 C 8,6 km/h (2 Bft)
14/11/2011 07:45 11,5 C 51 % 1019,0 hPa 0,0 mm 6,1 km/h (2 Bft) N 360 0 min 0 W/m 1,7 C 11,5 C 6,1 km/h (2 Bft)
14/11/2011 07:50 11,5 C 51 % 1019,0 hPa 0,0 mm 6,1 km/h (2 Bft) S-SE 157 0 min 0 W/m 1,7 C 11,5 C 15,1 km/h (3 Bft)
14/11/2011 07:55 11,5 C 52 % 1019,0 hPa 0,0 mm 1,4 km/h (1 Bft) S-SE 157 0 min 0 W/m 2,0 C 11,5 C 1,4 km/h (1 Bft)
14/11/2011 08:00 11,5 C 52 % 1019,0 hPa 0,0 mm 2,2 km/h (1 Bft) S 180 0 min 0 W/m 2,0 C 11,5 C 2,2 km/h (1 Bft)
14/11/2011 08:05 11,4 C 52 % 1019,1 hPa 0,0 mm 1,1 km/h (1 Bft) E-SE 112 0 min 0 W/m 1,9 C 11,4 C 4,0 km/h (1 Bft)
14/11/2011 08:10 11,4 C 53 % 1018,9 hPa 0,0 mm 6,1 km/h (2 Bft) E 90 0 min 0 W/m 2,2 C 11,4 C 7,6 km/h (2 Bft)
14/11/2011 08:15 11,4 C 53 % 1019,0 hPa 0,0 mm 4,3 km/h (1 Bft) SE 135 0 min 0 W/m 2,2 C 11,4 C 4,3 km/h (1 Bft)
14/11/2011 08:20 11,4 C 54 % 1019,0 hPa 0,0 mm 9,4 km/h (2 Bft) E-SE 112 0 min 0 W/m 2,4 C 11,4 C 9,4 km/h (2 Bft)
14/11/2011 08:25 11,4 C 54 % 1019,0 hPa 0,0 mm 6,1 km/h (2 Bft) S 180 0 min 0 W/m 2,4 C 11,4 C 13,0 km/h (3 Bft)
14/11/2011 08:30 11,4 C 55 % 1019,1 hPa 0,0 mm 8,3 km/h (2 Bft) SE 135 0 min 0 W/m 2,7 C 11,4 C 11,9 km/h (2 Bft)
14/11/2011 08:35 11,5 C 55 % 1019,1 hPa 0,0 mm 4,3 km/h (1 Bft) S-SE 157 0 min 0 W/m 2,8 C 11,5 C 4,7 km/h (1 Bft)
14/11/2011 08:40 11,6 C 56 % 1019,1 hPa 0,0 mm 5,8 km/h (2 Bft) S 180 0 min 0 W/m 3,1 C 11,6 C 12,2 km/h (2 Bft)
14/11/2011 08:45 11,6 C 56 % 1019,1 hPa 0,0 mm 5,4 km/h (2 Bft) S 180 0 min 0 W/m 3,1 C 11,6 C 7,2 km/h (2 Bft)
14/11/2011 08:50 11,8 C 56 % 1019,2 hPa 0,0 mm 3,6 km/h (1 Bft) S-SE 157 0 min 0 W/m 3,3 C 11,8 C 4,3 km/h (1 Bft)
14/11/2011 08:55 11,8 C 57 % 1019,2 hPa 0,0 mm 6,1 km/h (2 Bft) S-SE 157 0 min 0 W/m 3,6 C 11,8 C 10,8 km/h (2 Bft)
14/11/2011 09:00 11,9 C 57 % 1019,2 hPa 0,0 mm 7,2 km/h (2 Bft) SE 135 0 min 0 W/m 3,7 C 11,9 C 12,2 km/h (2 Bft)
14/11/2011 09:05 12,2 C 57 % 1019,3 hPa 0,0 mm 9,4 km/h (2 Bft) S-SE 157 0 min 0 W/m 3,9 C 12,2 C 10,8 km/h (2 Bft)
14/11/2011 09:10 12,5 C 57 % 1019,2 hPa 0,0 mm 4,0 km/h (1 Bft) S-SE 157 0 min 0 W/m 4,2 C 12,5 C 4,0 km/h (1 Bft)
14/11/2011 09:15 12,7 C 57 % 1019,2 hPa 0,0 mm 5,8 km/h (2 Bft) S-SE 157 0 min 0 W/m 4,4 C 12,7 C 12,6 km/h (3 Bft)
14/11/2011 09:20 12,8 C 57 % 1019,2 hPa 0,0 mm 6,1 km/h (2 Bft) S-SE 157 0 min 0 W/m 4,5 C 12,8 C 8,3 km/h (2 Bft)
14/11/2011 09:25 12,8 C 58 % 1019,1 hPa 0,0 mm 5,4 km/h (2 Bft) SE 135 0 min 0 W/m 4,7 C 12,8 C 6,1 km/h (2 Bft)
14/11/2011 09:30 12,8 C 58 % 1019,2 hPa 0,0 mm 7,2 km/h (2 Bft) E 90 0 min 0 W/m 4,7 C 12,8 C 9,4 km/h (2 Bft)
14/11/2011 09:35 12,8 C 58 % 1019,2 hPa 0,0 mm 5,4 km/h (2 Bft) S-SE 157 0 min 0 W/m 4,7 C 12,8 C 10,8 km/h (2 Bft)
14/11/2011 09:40 12,8 C 59 % 1019,3 hPa 0,0 mm 5,0 km/h (1 Bft) SE 135 0 min 0 W/m 5,0 C 12,8 C 11,2 km/h (2 Bft)
14/11/2011 09:45 12,7 C 59 % 1019,1 hPa 0,0 mm 5,0 km/h (1 Bft) SE 135 0 min 0 W/m 4,9 C 12,7 C 5,0 km/h (1 Bft)
14/11/2011 09:50 12,8 C 60 % 1019,1 hPa 0,0 mm 2,5 km/h (1 Bft) S-SE 157 0 min 0 W/m 5,2 C 12,8 C 4,3 km/h (1 Bft)
14/11/2011 09:55 12,8 C 60 % 1019,1 hPa 0,0 mm 0,4 km/h (0 Bft) S-SE 157 0 min 0 W/m 5,2 C 12,8 C 4,0 km/h (1 Bft)
14/11/2011 10:00 12,8 C 60 % 1019,1 hPa 0,0 mm 2,2 km/h (1 Bft) SE 135 0 min 0 W/m 5,2 C 12,8 C 3,6 km/h (1 Bft)
14/11/2011 10:05 12,9 C 60 % 1019,1 hPa 0,0 mm 2,2 km/h (1 Bft) E-SE 112 0 min 0 W/m 5,3 C 12,9 C 4,3 km/h (1 Bft)
14/11/2011 10:10 12,9 C 61 % 1019,1 hPa 0,0 mm 1,4 km/h (1 Bft) E-SE 112 0 min 0 W/m 5,6 C 12,9 C 4,3 km/h (1 Bft)
14/11/2011 10:15 13,1 C 61 % 1019,0 hPa 0,0 mm 2,5 km/h (1 Bft) S 180 0 min 0 W/m 5,8 C 13,1 C 6,8 km/h (2 Bft)
14/11/2011 10:20 13,1 C 61 % 1019,1 hPa 0,0 mm 6,1 km/h (2 Bft) S 180 0 min 0 W/m 5,8 C 13,1 C 14,4 km/h (3 Bft)
14/11/2011 10:25 13,1 C 61 % 1019,1 hPa 0,0 mm 1,1 km/h (1 Bft) SE 135 0 min 0 W/m 5,8 C 13,1 C 3,6 km/h (1 Bft)
14/11/2011 10:30 13,2 C 61 % 1019,0 hPa 0,0 mm 3,2 km/h (1 Bft) SE 135 0 min 0 W/m 5,8 C 13,2 C 6,8 km/h (2 Bft)
14/11/2011 10:35 13,3 C 61 % 1019,0 hPa 0,0 mm 5,0 km/h (1 Bft) S-SE 157 0 min 0 W/m 5,9 C 13,3 C 7,9 km/h (2 Bft)
14/11/2011 10:40 13,3 C 60 % 1019,0 hPa 0,0 mm 5,4 km/h (2 Bft) S-SE 157 0 min 0 W/m 5,7 C 13,3 C 6,5 km/h (2 Bft)
14/11/2011 10:45 13,4 C 61 % 1019,0 hPa 0,0 mm 1,8 km/h (1 Bft) E-NE 67 0 min 0 W/m 6,0 C 13,4 C 4,3 km/h (1 Bft)
14/11/2011 10:50 13,4 C 61 % 1018,9 hPa 0,0 mm 5,8 km/h (2 Bft) S-SE 157 0 min 0 W/m 6,0 C 13,4 C 7,6 km/h (2 Bft)
14/11/2011 10:55 13,4 C 61 % 1018,9 hPa 0,0 mm 6,5 km/h (2 Bft) SE 135 0 min 0 W/m 6,0 C 13,4 C 9,7 km/h (2 Bft)
14/11/2011 11:00 13,5 C 61 % 1018,9 hPa 0,0 mm 6,8 km/h (2 Bft) E-SE 112 0 min 0 W/m 6,1 C 13,5 C 7,6 km/h (2 Bft)
14/11/2011 11:05 13,5 C 61 % 1018,8 hPa 0,0 mm 3,2 km/h (1 Bft) SE 135 0 min 0 W/m 6,1 C 13,5 C 4,3 km/h (1 Bft)
14/11/2011 11:10 13,6 C 61 % 1018,8 hPa 0,0 mm 4,0 km/h (1 Bft) SE 135 0 min 0 W/m 6,2 C 13,6 C 8,3 km/h (2 Bft)
14/11/2011 11:15 13,6 C 61 % 1018,8 hPa 0,0 mm 2,2 km/h (1 Bft) E-SE 112 0 min 0 W/m 6,2 C 13,6 C 3,6 km/h (1 Bft)
14/11/2011 11:20 13,8 C 62 % 1018,8 hPa 0,0 mm 4,0 km/h (1 Bft) SE 135 0 min 0 W/m 6,6 C 13,8 C 7,2 km/h (2 Bft)
14/11/2011 11:25 13,8 C 61 % 1018,7 hPa 0,0 mm 4,0 km/h (1 Bft) E-SE 112 0 min 0 W/m 6,4 C 13,8 C 4,3 km/h (1 Bft)
14/11/2011 11:30 14,0 C 61 % 1018,6 hPa 0,0 mm 6,1 km/h (2 Bft) E-SE 112 0 min 0 W/m 6,6 C 14,0 C 10,1 km/h (2 Bft)
14/11/2011 11:35 14,1 C 62 % 1018,5 hPa 0,0 mm 5,4 km/h (2 Bft) E-SE 112 0 min 0 W/m 6,9 C 14,1 C 6,8 km/h (2 Bft)
14/11/2011 11:40 14,3 C 60 % 1018,5 hPa 0,0 mm 9,4 km/h (2 Bft) SE 135 0 min 0 W/m 6,6 C 14,3 C 10,1 km/h (2 Bft)
14/11/2011 11:45 14,4 C 61 % 1018,4 hPa 0,0 mm 3,6 km/h (1 Bft) S-SE 157 0 min 0 W/m 7,0 C 14,4 C 7,6 km/h (2 Bft)
14/11/2011 11:50 14,7 C 60 % 1018,4 hPa 0,0 mm 8,3 km/h (2 Bft) S-SO 202 0 min 0 W/m 7,0 C 14,7 C 13,0 km/h (3 Bft)
14/11/2011 11:55 14,9 C 59 % 1018,4 hPa 0,0 mm 2,2 km/h (1 Bft) S-SO 202 0 min 0 W/m 7,0 C 14,9 C 4,3 km/h (1 Bft)
14/11/2011 12:00 15,1 C 58 % 1018,3 hPa 0,0 mm 10,4 km/h (2 Bft) E-SE 112 0 min 0 W/m 6,9 C 15,1 C 14,4 km/h (3 Bft)
14/11/2011 12:05 15,2 C 59 % 1018,2 hPa 0,0 mm 7,2 km/h (2 Bft) SE 135 0 min 0 W/m 7,2 C 15,2 C 9,0 km/h (2 Bft)
14/11/2011 12:10 15,3 C 58 % 1018,1 hPa 0,0 mm 2,2 km/h (1 Bft) SE 135 0 min 0 W/m 7,1 C 15,3 C 3,6 km/h (1 Bft)
14/11/2011 12:15 15,4 C 58 % 1018,0 hPa 0,0 mm 5,4 km/h (2 Bft) S-SE 157 0 min 0 W/m 7,2 C 15,4 C 5,4 km/h (2 Bft)
14/11/2011 12:20 15,4 C 59 % 1018,0 hPa 0,0 mm 8,3 km/h (2 Bft) E 90 0 min 0 W/m 7,4 C 15,4 C 11,5 km/h (2 Bft)
14/11/2011 12:25 15,4 C 58 % 1017,9 hPa 0,0 mm 6,1 km/h (2 Bft) SE 135 0 min 0 W/m 7,2 C 15,4 C 13,3 km/h (3 Bft)
14/11/2011 12:30 15,4 C 58 % 1017,8 hPa 0,0 mm 9,4 km/h (2 Bft) E-SE 112 0 min 0 W/m 7,2 C 15,4 C 11,9 km/h (2 Bft)
14/11/2011 12:35 15,3 C 58 % 1017,8 hPa 0,0 mm 12,6 km/h (3 Bft) SE 135 0 min 0 W/m 7,1 C 15,3 C 16,9 km/h (3 Bft)
14/11/2011 12:40 15,2 C 58 % 1017,7 hPa 0,0 mm 7,6 km/h (2 Bft) S-SE 157 0 min 0 W/m 7,0 C 15,2 C 7,6 km/h (2 Bft)
14/11/2011 12:45 15,2 C 58 % 1017,6 hPa 0,0 mm 6,8 km/h (2 Bft) SE 135 0 min 0 W/m 7,0 C 15,2 C 6,8 km/h (2 Bft)
14/11/2011 12:50 15,2 C 59 % 1017,4 hPa 0,0 mm 7,2 km/h (2 Bft) E-SE 112 0 min 0 W/m 7,2 C 15,2 C 15,1 km/h (3 Bft)
14/11/2011 12:55 15,1 C 59 % 1017,4 hPa 0,0 mm 6,1 km/h (2 Bft) SE 135 0 min 0 W/m 7,1 C 15,1 C 8,3 km/h (2 Bft)
14/11/2011 13:00 15,2 C 59 % 1017,3 hPa 0,0 mm 3,6 km/h (1 Bft) SE 135 0 min 0 W/m 7,2 C 15,2 C 6,1 km/h (2 Bft)
14/11/2011 13:05 15,2 C 59 % 1017,2 hPa 0,0 mm 3,2 km/h (1 Bft) SE 135 0 min 0 W/m 7,2 C 15,2 C 3,6 km/h (1 Bft)
14/11/2011 13:10 15,2 C 59 % 1017,1 hPa 0,0 mm 6,5 km/h (2 Bft) SE 135 0 min 0 W/m 7,2 C 15,2 C 11,2 km/h (2 Bft)
14/11/2011 13:15 15,3 C 59 % 1017,0 hPa 0,0 mm 2,5 km/h (1 Bft) S-SE 157 0 min 0 W/m 7,3 C 15,3 C 4,3 km/h (1 Bft)
14/11/2011 13:20 15,4 C 59 % 1017,0 hPa 0,0 mm 0,4 km/h (0 Bft) E-SE 112 0 min 0 W/m 7,4 C 15,4 C 2,9 km/h (1 Bft)
14/11/2011 13:25 15,4 C 59 % 1016,9 hPa 0,0 mm 2,9 km/h (1 Bft) SE 135 0 min 0 W/m 7,4 C 15,4 C 4,3 km/h (1 Bft)
14/11/2011 13:30 15,6 C 59 % 1016,8 hPa 0,0 mm 8,6 km/h (2 Bft) E-SE 112 0 min 0 W/m 7,6 C 15,6 C 8,6 km/h (2 Bft)
14/11/2011 13:35 15,8 C 59 % 1016,8 hPa 0,0 mm 3,2 km/h (1 Bft) E-SE 112 0 min 0 W/m 7,8 C 15,8 C 6,8 km/h (2 Bft)
14/11/2011 13:40 16,0 C 59 % 1016,8 hPa 0,0 mm 7,2 km/h (2 Bft) E-SE 112 0 min 0 W/m 8,0 C 16,0 C 7,2 km/h (2 Bft)
14/11/2011 13:45 16,3 C 58 % 1017,0 hPa 0,0 mm 8,3 km/h (2 Bft) E 90 0 min 0 W/m 8,0 C 16,3 C 12,2 km/h (2 Bft)
14/11/2011 13:50 16,6 C 58 % 1016,9 hPa 0,0 mm 3,6 km/h (1 Bft) E-SE 112 0 min 0 W/m 8,3 C 16,6 C 3,6 km/h (1 Bft)
14/11/2011 13:55 17,1 C 58 % 1016,9 hPa 0,0 mm 5,0 km/h (1 Bft) SE 135 0 min 0 W/m 8,8 C 17,1 C 7,9 km/h (2 Bft)
14/11/2011 14:00 17,3 C 56 % 1016,8 hPa 0,0 mm 7,9 km/h (2 Bft) E-SE 112 0 min 0 W/m 8,4 C 17,3 C 9,4 km/h (2 Bft)
14/11/2011 14:05 17,4 C 56 % 1016,7 hPa 0,0 mm 4,7 km/h (1 Bft) SE 135 0 min 0 W/m 8,5 C 17,4 C 7,9 km/h (2 Bft)
14/11/2011 14:10 17,5 C 55 % 1016,5 hPa 0,0 mm 7,6 km/h (2 Bft) SE 135 0 min 0 W/m 8,4 C 17,5 C 10,1 km/h (2 Bft)
14/11/2011 14:15 17,6 C 55 % 1016,5 hPa 0,0 mm 6,1 km/h (2 Bft) SE 135 0 min 0 W/m 8,5 C 17,6 C 9,0 km/h (2 Bft)
14/11/2011 14:20 17,6 C 55 % 1016,5 hPa 0,0 mm 5,8 km/h (2 Bft) SE 135 0 min 0 W/m 8,5 C 17,6 C 8,6 km/h (2 Bft)
14/11/2011 14:25 17,6 C 54 % 1016,4 hPa 0,0 mm 8,6 km/h (2 Bft) S 180 0 min 0 W/m 8,2 C 17,6 C 11,5 km/h (2 Bft)
14/11/2011 14:30 17,6 C 55 % 1016,4 hPa 0,0 mm 2,9 km/h (1 Bft) S-SE 157 0 min 0 W/m 8,5 C 17,6 C 6,5 km/h (2 Bft)
14/11/2011 14:35 17,5 C 55 % 1016,3 hPa 0,0 mm 4,0 km/h (1 Bft) SE 135 0 min 0 W/m 8,4 C 17,5 C 4,3 km/h (1 Bft)
14/11/2011 14:40 17,4 C 55 % 1016,3 hPa 0,0 mm 1,4 km/h (1 Bft) S-SE 157 0 min 0 W/m 8,3 C 17,4 C 7,6 km/h (2 Bft)
14/11/2011 14:45 17,3 C 55 % 1016,3 hPa 0,0 mm 2,9 km/h (1 Bft) S-SE 157 0 min 0 W/m 8,2 C 17,3 C 6,8 km/h (2 Bft)
14/11/2011 14:50 17,2 C 55 % 1016,2 hPa 0,0 mm 5,8 km/h (2 Bft) SE 135 0 min 0 W/m 8,1 C 17,2 C 5,8 km/h (2 Bft)
14/11/2011 14:55 17,1 C 55 % 1016,2 hPa 0,0 mm 4,0 km/h (1 Bft) SE 135 0 min 0 W/m 8,0 C 17,1 C 6,1 km/h (2 Bft)
14/11/2011 15:00 16,8 C 56 % 1016,1 hPa 0,0 mm 5,8 km/h (2 Bft) SO 225 0 min 0 W/m 8,0 C 16,8 C 10,4 km/h (2 Bft)
14/11/2011 15:05 16,6 C 57 % 1015,9 hPa 0,0 mm 2,2 km/h (1 Bft) S-SE 157 0 min 0 W/m 8,0 C 16,6 C 4,0 km/h (1 Bft)
14/11/2011 15:10 16,5 C 57 % 1015,9 hPa 0,0 mm 3,2 km/h (1 Bft) SE 135 0 min 0 W/m 8,0 C 16,5 C 6,5 km/h (2 Bft)
14/11/2011 15:15 16,3 C 58 % 1015,9 hPa 0,0 mm 4,0 km/h (1 Bft) SE 135 0 min 0 W/m 8,0 C 16,3 C 9,0 km/h (2 Bft)
14/11/2011 15:20 16,3 C 58 % 1015,8 hPa 0,0 mm 3,2 km/h (1 Bft) SE 135 0 min 0 W/m 8,0 C 16,3 C 4,3 km/h (1 Bft)
14/11/2011 15:25 16,3 C 58 % 1015,7 hPa 0,0 mm 5,0 km/h (1 Bft) E-SE 112 0 min 0 W/m 8,0 C 16,3 C 8,3 km/h (2 Bft)
14/11/2011 15:30 16,3 C 59 % 1015,7 hPa 0,0 mm 2,2 km/h (1 Bft) SE 135 0 min 0 W/m 8,3 C 16,3 C 6,5 km/h (2 Bft)
14/11/2011 15:35 16,5 C 59 % 1015,6 hPa 0,0 mm 4,7 km/h (1 Bft) NE 45 0 min 0 W/m 8,5 C 16,5 C 8,3 km/h (2 Bft)
14/11/2011 15:40 16,5 C 59 % 1015,6 hPa 0,0 mm 5,0 km/h (1 Bft) E-SE 112 0 min 0 W/m 8,5 C 16,5 C 6,8 km/h (2 Bft)
14/11/2011 15:45 16,6 C 58 % 1015,5 hPa 0,0 mm 3,6 km/h (1 Bft) SE 135 0 min 0 W/m 8,3 C 16,6 C 6,5 km/h (2 Bft)
14/11/2011 15:50 16,6 C 58 % 1015,6 hPa 0,0 mm 0,0 km/h (0 Bft) E-SE 112 0 min 0 W/m 8,3 C 16,6 C 0,0 km/h (0 Bft)
14/11/2011 15:55 16,6 C 58 % 1015,6 hPa 0,0 mm 2,2 km/h (1 Bft) SE 135 0 min 0 W/m 8,3 C 16,6 C 4,0 km/h (1 Bft)
14/11/2011 16:00 16,5 C 58 % 1015,4 hPa 0,0 mm 1,4 km/h (1 Bft) E-SE 112 0 min 0 W/m 8,2 C 16,5 C 4,0 km/h (1 Bft)
14/11/2011 16:05 16,4 C 58 % 1015,5 hPa 0,0 mm 4,0 km/h (1 Bft) S-SE 157 0 min 0 W/m 8,1 C 16,4 C 6,5 km/h (2 Bft)
14/11/2011 16:10 16,4 C 59 % 1015,5 hPa 0,0 mm 1,8 km/h (1 Bft) E 90 0 min 0 W/m 8,4 C 16,4 C 4,3 km/h (1 Bft)
14/11/2011 16:15 16,3 C 59 % 1015,5 hPa 0,0 mm 0,4 km/h (0 Bft) E-SE 112 0 min 0 W/m 8,3 C 16,3 C 3,6 km/h (1 Bft)
14/11/2011 16:20 16,3 C 59 % 1015,5 hPa 0,0 mm 4,0 km/h (1 Bft) SE 135 0 min 0 W/m 8,3 C 16,3 C 7,6 km/h (2 Bft)
14/11/2011 16:25 16,2 C 59 % 1015,5 hPa 0,0 mm 3,6 km/h (1 Bft) E-SE 112 0 min 0 W/m 8,2 C 16,2 C 10,4 km/h (2 Bft)
14/11/2011 16:30 16,2 C 60 % 1015,5 hPa 0,0 mm 2,5 km/h (1 Bft) SE 135 0 min 0 W/m 8,4 C 16,2 C 2,5 km/h (1 Bft)
14/11/2011 16:35 16,1 C 60 % 1015,5 hPa 0,0 mm 0,4 km/h (0 Bft) SE 135 0 min 0 W/m 8,3 C 16,1 C 0,4 km/h (0 Bft)
14/11/2011 16:40 16,0 C 60 % 1015,5 hPa 0,0 mm 0,0 km/h (0 Bft) SE 135 0 min 0 W/m 8,2 C 16,0 C 0,0 km/h (0 Bft)
14/11/2011 16:45 15,9 C 60 % 1015,4 hPa 0,0 mm 2,9 km/h (1 Bft) E 90 0 min 0 W/m 8,1 C 15,9 C 4,3 km/h (1 Bft)
14/11/2011 16:50 15,8 C 61 % 1015,5 hPa 0,0 mm 2,5 km/h (1 Bft) SE 135 0 min 0 W/m 8,3 C 15,8 C 4,3 km/h (1 Bft)
14/11/2011 16:55 15,7 C 61 % 1015,5 hPa 0,0 mm 1,8 km/h (1 Bft) SE 135 0 min 0 W/m 8,2 C 15,7 C 4,0 km/h (1 Bft)
14/11/2011 17:00 15,5 C 61 % 1015,5 hPa 0,0 mm 1,8 km/h (1 Bft) E-SE 112 0 min 0 W/m 8,0 C 15,5 C 4,3 km/h (1 Bft)
14/11/2011 17:05 15,4 C 61 % 1015,5 hPa 0,0 mm 1,4 km/h (1 Bft) SE 135 0 min 0 W/m 7,9 C 15,4 C 1,4 km/h (1 Bft)
14/11/2011 17:10 15,2 C 62 % 1015,5 hPa 0,0 mm 1,4 km/h (1 Bft) S-SE 157 0 min 0 W/m 8,0 C 15,2 C 2,9 km/h (1 Bft)
14/11/2011 17:15 15,0 C 62 % 1015,5 hPa 0,0 mm 1,8 km/h (1 Bft) S-SE 157 0 min 0 W/m 7,8 C 15,0 C 1,8 km/h (1 Bft)
14/11/2011 17:20 14,8 C 62 % 1015,6 hPa 0,0 mm 1,4 km/h (1 Bft) SE 135 0 min 0 W/m 7,6 C 14,8 C 1,4 km/h (1 Bft)
14/11/2011 17:25 14,7 C 63 % 1015,6 hPa 0,0 mm 1,4 km/h (1 Bft) SE 135 0 min 0 W/m 7,7 C 14,7 C 4,0 km/h (1 Bft)
14/11/2011 17:30 14,5 C 63 % 1015,5 hPa 0,0 mm 0,4 km/h (0 Bft) SE 135 0 min 0 W/m 7,5 C 14,5 C 3,6 km/h (1 Bft)
14/11/2011 17:35 14,4 C 63 % 1015,5 hPa 0,0 mm 0,4 km/h (0 Bft) SE 135 0 min 0 W/m 7,4 C 14,4 C 3,2 km/h (1 Bft)
14/11/2011 17:40 14,3 C 63 % 1015,5 hPa 0,0 mm 0,0 km/h (0 Bft) SE 135 0 min 0 W/m 7,4 C 14,3 C 3,2 km/h (1 Bft)
14/11/2011 17:45 14,1 C 64 % 1015,6 hPa 0,0 mm 1,8 km/h (1 Bft) E-SE 112 0 min 0 W/m 7,4 C 14,1 C 4,3 km/h (1 Bft)
14/11/2011 17:50 13,9 C 64 % 1015,5 hPa 0,0 mm 0,4 km/h (0 Bft) E-SE 112 0 min 0 W/m 7,2 C 13,9 C 3,2 km/h (1 Bft)
14/11/2011 17:55 13,8 C 64 % 1015,6 hPa 0,0 mm 0,0 km/h (0 Bft) E 90 0 min 0 W/m 7,1 C 13,8 C 0,0 km/h (0 Bft)
14/11/2011 18:00 13,7 C 64 % 1015,6 hPa 0,0 mm 0,0 km/h (0 Bft) E 90 0 min 0 W/m 7,0 C 13,7 C 0,0 km/h (0 Bft)
14/11/2011 18:05 13,5 C 65 % 1015,6 hPa 0,0 mm 0,0 km/h (0 Bft) E 90 0 min 0 W/m 7,1 C 13,5 C 0,0 km/h (0 Bft)
14/11/2011 18:10 13,3 C 65 % 1015,6 hPa 0,0 mm 0,0 km/h (0 Bft) E 90 0 min 0 W/m 6,9 C 13,3 C 0,0 km/h (0 Bft)
14/11/2011 18:15 13,1 C 66 % 1015,7 hPa 0,0 mm 0,0 km/h (0 Bft) E 90 0 min 0 W/m 6,9 C 13,1 C 0,0 km/h (0 Bft)
14/11/2011 18:20 12,8 C 67 % 1015,7 hPa 0,0 mm 0,0 km/h (0 Bft) E 90 0 min 0 W/m 6,8 C 12,8 C 0,0 km/h (0 Bft)
14/11/2011 18:25 12,6 C 67 % 1015,7 hPa 0,0 mm 0,0 km/h (0 Bft) E 90 0 min 0 W/m 6,6 C 12,6 C 0,0 km/h (0 Bft)
14/11/2011 18:30 12,5 C 68 % 1015,6 hPa 0,0 mm 0,0 km/h (0 Bft) E 90 0 min 0 W/m 6,8 C 12,5 C 0,0 km/h (0 Bft)
14/11/2011 18:35 12,3 C 68 % 1015,6 hPa 0,0 mm 0,4 km/h (0 Bft) E-SE 112 0 min 0 W/m 6,6 C 12,3 C 6,1 km/h (2 Bft)
14/11/2011 18:40 12,3 C 69 % 1015,6 hPa 0,0 mm 0,0 km/h (0 Bft) SE 135 0 min 0 W/m 6,8 C 12,3 C 0,0 km/h (0 Bft)
14/11/2011 18:45 12,2 C 69 % 1015,5 hPa 0,0 mm 0,0 km/h (0 Bft) S-SE 157 0 min 0 W/m 6,7 C 12,2 C 0,0 km/h (0 Bft)
14/11/2011 18:50 12,2 C 69 % 1015,5 hPa 0,0 mm 0,4 km/h (0 Bft) S-SE 157 0 min 0 W/m 6,7 C 12,2 C 0,4 km/h (0 Bft)
14/11/2011 18:55 12,3 C 70 % 1015,5 hPa 0,0 mm 0,4 km/h (0 Bft) S 180 0 min 0 W/m 7,0 C 12,3 C 3,2 km/h (1 Bft)
14/11/2011 19:00 12,3 C 69 % 1015,5 hPa 0,0 mm 0,4 km/h (0 Bft) SE 135 0 min 0 W/m 6,8 C 12,3 C 3,2 km/h (1 Bft)
14/11/2011 19:05 12,3 C 70 % 1015,5 hPa 0,0 mm 1,1 km/h (1 Bft) SE 135 0 min 0 W/m 7,0 C 12,3 C 3,6 km/h (1 Bft)
14/11/2011 19:10 12,4 C 70 % 1015,3 hPa 0,0 mm 1,1 km/h (1 Bft) SE 135 0 min 0 W/m 7,1 C 12,4 C 1,1 km/h (1 Bft)
14/11/2011 19:15 12,6 C 69 % 1015,4 hPa 0,0 mm 0,0 km/h (0 Bft) SE 135 0 min 0 W/m 7,1 C 12,6 C 0,0 km/h (0 Bft)
14/11/2011 19:20 12,5 C 69 % 1015,4 hPa 0,0 mm 0,4 km/h (0 Bft) SE 135 0 min 0 W/m 7,0 C 12,5 C 3,2 km/h (1 Bft)
14/11/2011 19:25 12,6 C 69 % 1015,4 hPa 0,0 mm 0,7 km/h (0 Bft) SE 135 0 min 0 W/m 7,1 C 12,6 C 0,7 km/h (0 Bft)
14/11/2011 19:30 12,5 C 69 % 1015,4 hPa 0,0 mm 0,7 km/h (0 Bft) E-SE 112 0 min 0 W/m 7,0 C 12,5 C 3,6 km/h (1 Bft)
14/11/2011 19:35 12,5 C 69 % 1015,4 hPa 0,0 mm 0,0 km/h (0 Bft) SE 135 0 min 0 W/m 7,0 C 12,5 C 0,0 km/h (0 Bft)
14/11/2011 19:40 12,3 C 69 % 1015,4 hPa 0,0 mm 0,0 km/h (0 Bft) E-SE 112 0 min 0 W/m 6,8 C 12,3 C 0,0 km/h (0 Bft)
14/11/2011 19:45 12,2 C 70 % 1015,4 hPa 0,0 mm 0,0 km/h (0 Bft) E-SE 112 0 min 0 W/m 6,9 C 12,2 C 0,0 km/h (0 Bft)
14/11/2011 19:50 12,1 C 70 % 1015,3 hPa 0,0 mm 2,5 km/h (1 Bft) E 90 0 min 0 W/m 6,8 C 12,1 C 6,5 km/h (2 Bft)
14/11/2011 19:55 12,1 C 71 % 1015,3 hPa 0,0 mm 0,0 km/h (0 Bft) E 90 0 min 0 W/m 7,0 C 12,1 C 0,0 km/h (0 Bft)
14/11/2011 20:00 11,9 C 71 % 1015,2 hPa 0,0 mm 0,7 km/h (0 Bft) E-SE 112 0 min 0 W/m 6,8 C 11,9 C 3,6 km/h (1 Bft)
14/11/2011 20:05 11,9 C 71 % 1015,2 hPa 0,0 mm 1,8 km/h (1 Bft) E 90 0 min 0 W/m 6,8 C 11,9 C 3,2 km/h (1 Bft)
14/11/2011 20:10 11,9 C 71 % 1015,1 hPa 0,0 mm 3,2 km/h (1 Bft) E 90 0 min 0 W/m 6,8 C 11,9 C 4,3 km/h (1 Bft)
14/11/2011 20:15 11,9 C 71 % 1015,2 hPa 0,0 mm 2,2 km/h (1 Bft) SE 135 0 min 0 W/m 6,8 C 11,9 C 4,3 km/h (1 Bft)
14/11/2011 20:20 12,0 C 71 % 1015,1 hPa 0,0 mm 0,0 km/h (0 Bft) E-SE 112 0 min 0 W/m 6,9 C 12,0 C 3,2 km/h (1 Bft)
14/11/2011 20:25 12,0 C 71 % 1015,0 hPa 0,0 mm 0,0 km/h (0 Bft) E-SE 112 0 min 0 W/m 6,9 C 12,0 C 0,0 km/h (0 Bft)
14/11/2011 20:30 11,9 C 71 % 1015,0 hPa 0,0 mm 1,1 km/h (1 Bft) E-SE 112 0 min 0 W/m 6,8 C 11,9 C 4,3 km/h (1 Bft)
14/11/2011 20:35 11,9 C 71 % 1015,0 hPa 0,0 mm 0,0 km/h (0 Bft) E 90 0 min 0 W/m 6,8 C 11,9 C 3,2 km/h (1 Bft)
14/11/2011 20:40 11,9 C 71 % 1015,0 hPa 0,0 mm 0,7 km/h (0 Bft) SE 135 0 min 0 W/m 6,8 C 11,9 C 3,6 km/h (1 Bft)
14/11/2011 20:45 11,9 C 71 % 1015,0 hPa 0,0 mm 0,0 km/h (0 Bft) E 90 0 min 0 W/m 6,8 C 11,9 C 0,0 km/h (0 Bft)
14/11/2011 20:50 11,9 C 71 % 1014,9 hPa 0,0 mm 0,4 km/h (0 Bft) E-SE 112 0 min 0 W/m 6,8 C 11,9 C 0,4 km/h (0 Bft)
14/11/2011 20:55 11,9 C 71 % 1014,9 hPa 0,0 mm 0,0 km/h (0 Bft) E 90 0 min 0 W/m 6,8 C 11,9 C 0,0 km/h (0 Bft)
14/11/2011 21:00 11,8 C 71 % 1014,8 hPa 0,0 mm 0,7 km/h (0 Bft) E-NE 67 0 min 0 W/m 6,7 C 11,8 C 0,7 km/h (0 Bft)
14/11/2011 21:05 11,8 C 71 % 1014,9 hPa 0,0 mm 0,0 km/h (0 Bft) E 90 0 min 0 W/m 6,7 C 11,8 C 0,0 km/h (0 Bft)
14/11/2011 21:10 11,7 C 71 % 1014,9 hPa 0,0 mm 1,8 km/h (1 Bft) E 90 0 min 0 W/m 6,6 C 11,7 C 3,6 km/h (1 Bft)
14/11/2011 21:15 11,7 C 71 % 1014,8 hPa 0,0 mm 0,4 km/h (0 Bft) E 90 0 min 0 W/m 6,6 C 11,7 C 4,0 km/h (1 Bft)
14/11/2011 21:20 11,8 C 71 % 1014,8 hPa 0,0 mm 1,4 km/h (1 Bft) E-NE 67 0 min 0 W/m 6,7 C 11,8 C 1,4 km/h (1 Bft)
14/11/2011 21:25 11,8 C 71 % 1014,8 hPa 0,0 mm 0,7 km/h (0 Bft) SE 135 0 min 0 W/m 6,7 C 11,8 C 2,9 km/h (1 Bft)
14/11/2011 21:30 11,8 C 70 % 1014,7 hPa 0,0 mm 1,1 km/h (1 Bft) E 90 0 min 0 W/m 6,5 C 11,8 C 1,1 km/h (1 Bft)
14/11/2011 21:35 11,8 C 70 % 1014,7 hPa 0,0 mm 2,2 km/h (1 Bft) S-SE 157 0 min 0 W/m 6,5 C 11,8 C 4,3 km/h (1 Bft)
14/11/2011 21:40 11,8 C 70 % 1014,7 hPa 0,0 mm 3,2 km/h (1 Bft) E 90 0 min 0 W/m 6,5 C 11,8 C 6,1 km/h (2 Bft)
14/11/2011 21:45 11,9 C 70 % 1014,7 hPa 0,0 mm 1,8 km/h (1 Bft) SE 135 0 min 0 W/m 6,6 C 11,9 C 4,0 km/h (1 Bft)
14/11/2011 21:50 11,9 C 70 % 1014,7 hPa 0,0 mm 0,0 km/h (0 Bft) E-SE 112 0 min 0 W/m 6,6 C 11,9 C 0,0 km/h (0 Bft)
14/11/2011 21:55 11,8 C 70 % 1014,6 hPa 0,0 mm 0,0 km/h (0 Bft) E-SE 112 0 min 0 W/m 6,5 C 11,8 C 0,0 km/h (0 Bft)
14/11/2011 22:00 11,8 C 70 % 1014,6 hPa 0,0 mm 0,0 km/h (0 Bft) E 90 0 min 0 W/m 6,5 C 11,8 C 0,0 km/h (0 Bft)
14/11/2011 22:05 11,8 C 70 % 1014,6 hPa 0,0 mm 0,4 km/h (0 Bft) E-SE 112 0 min 0 W/m 6,5 C 11,8 C 0,4 km/h (0 Bft)
14/11/2011 22:10 11,8 C 70 % 1014,5 hPa 0,0 mm 0,4 km/h (0 Bft) E-SE 112 0 min 0 W/m 6,5 C 11,8 C 3,6 km/h (1 Bft)
14/11/2011 22:15 11,7 C 70 % 1014,4 hPa 0,0 mm 0,0 km/h (0 Bft) SE 135 0 min 0 W/m 6,4 C 11,7 C 0,0 km/h (0 Bft)
14/11/2011 22:20 11,7 C 70 % 1014,3 hPa 0,0 mm 0,0 km/h (0 Bft) E-SE 112 0 min 0 W/m 6,4 C 11,7 C 3,2 km/h (1 Bft)
14/11/2011 22:25 11,7 C 70 % 1014,3 hPa 0,0 mm 1,1 km/h (1 Bft) SE 135 0 min 0 W/m 6,4 C 11,7 C 4,0 km/h (1 Bft)
14/11/2011 22:30 11,7 C 70 % 1014,2 hPa 0,0 mm 1,8 km/h (1 Bft) SE 135 0 min 0 W/m 6,4 C 11,7 C 4,3 km/h (1 Bft)
_ Min-Heure 03:20 07:50 22:30 - 22:20 - - - - 07:30 03:20 22:15
Minimum _ 9,0 C 51 % 1014,2 hPa - 0,0 km/h (0 Bft) - - - - 1,6 C 9,0 C 0,0 km/h (0 Bft)
_ Max-Heure 14:30 21:25 00:30 22:30 12:35 - - 22:30 22:30 13:55 14:30 12:35
Maximum _ 17,6 C 71 % 1021,5 hPa 0,0 mm 12,6 km/h
SE (3 Bft)
- - 0 min 0 W/m 8,8 C 17,6 C 16,9 km/h
SE (3 Bft)
Moyenne _ 12,9 C 61 % 1017,9 hPa #0,0 mm 3,3 km/h (1 Bft) SE - #0 min. 0 W/m 5,4 C 12,9 C 5,6 km/h (2 Bft)
Saint Bonnet de Bellac- Haute Vienne - France